DECAYED
Showing default

ICEYE-X12, 48914 (Decayed)

Orbit data source: Space-Track

ICEYE-X12, 48914 was a payload satellite owned by ICEYE (FI) in LEO that was launched on Wed, 30 Jun 2021 UTC via an FALCON 9 launch vehicle from the Air Force Eastern Test Range (AFETR). Payload-class satellites include a variety of spacecraft equipped with specific instruments for various scientific and technological missions. These include communications satellites like Starlink; space stations such as the ISS; scientific satellites like the Hubble; Earth observation satellites from companies like Planet Labs, Umbra, and HawkEye 360; GPS; miniature CubeSats for education and research; and military/defense satellites.

Not visible in the next 10 days
Identifier
48914, 2021-059AM
Orbit
Decayed
Country
Flag of FIFI / FIN
Related business
Manufacturer
ICEYE
Mission
Decayed Commercial Radar Imaging
Bus & Motor
ICEYE, Unknown motor
Mass
80 kg wet, 80 kg dry
Launch date (UTC)
2021-06-30 (4 years ago)
Launch vehicle
FALCON 9
Launch site
Air Force Eastern Test Range (AFETR)
Object type
Payload
Rocket body
Debris
Shape & HBR
Box + 1 Pan, 1.6 m
Radar Cross Section
1.837 m², Medium (>0.1 m² and < 1m²)

Expand to show TLE details & history
Last TLE update: 8 months ago

TLE from 8 months ago
0 ICEYE-X12
1 48914U 21059AM  25017.98049345  .11757287  26434-5  13488-2 0  9998
2 48914  97.6100 177.6054 0010121 280.3836  79.6320 16.36789834197960
Epoch: 2025-01-17T23:31Z
TLE epoch observation values (Epoch: 2025-01-17T23:31:54.634Z)
Latitude
-0.00001°
Longitude
66.99141°
Altitude
176.409 km
Speed
7.801 km/s
True Right ascension
11h 50m 25s
True Declination
0° 00' 00"
Sunlit
Object was in full shadow at epoch
Visualization orbit readout
Latitude
Unknown
Longitude
Unknown
Altitude
Unknown
Speed
Unknown
Apparent Right ascension
Unknown
Apparent Declination
Unknown
Sunlit
N/A
Visualization observer readout
Local Sidereal Time
19:18:47
Azimuth
Unknown
Elevation
Unknown
Doppler factor
Unknown
Orbital elements
Apogee altitude
177.806 km
Perigee altitude
164.549 km
Semi-major axis
6,549.314 km
Eccentricity
0.00101
Inclination
97.61°
RAAN
177.6054°
Arg. of periapsis
280.3836°
True anomaly
79.74611°
Mean anomaly
79.632°
Eccentric anomaly
79.68905°
Mean motion
4.09496 °/min
Orbital period
87.91 mins
BSTAR
0.0013488
Loading maneuver chart data...
Computing Atmospheric mass density...
Loading historical data...
Loading historical data...
Loading historical data...
Loading historical data...
Loading historical data...
Loading historical data...
Loading historical data...

Documentation

Showing up to 5 results
|